Location: Aalen
(48.8330°N, 10.1000°E)
Time: 21:00:28
(UTC+02:00)

SPROUT - Visible Passes

Search period start: 28 March 2023 00:00
Search period end: 07 April 2023 00:00
Orbit: 565 x 577 km, 98.0° (Epoch: 28 March)

Date Brightness Start Highest point End Pass type
(mag) Time Alt. Az. Time Alt. Az. Time Alt. Az.
28 Mar ? 02:26:53 11° N 02:26:53 11° N 02:27:02 10° N visible
29 Mar ? 02:29:08 12° N 02:29:08 12° N 02:29:23 10° NNW visible
30 Mar ? 02:31:18 12° NNW 02:31:18 12° NNW 02:31:39 10° NNW visible
31 Mar ? 02:33:25 13° NNW 02:33:25 13° NNW 02:33:51 10° NNW visible
01 Apr ? 02:35:27 13° NNW 02:35:27 13° NNW 02:35:59 10° NNW visible
02 Apr ? 02:37:26 14° NNW 02:37:26 14° NNW 02:38:03 10° NNW visible
03 Apr ? 01:03:14 10° NNE 01:03:14 10° NNE 01:03:17 10° NNE visible
03 Apr ? 02:39:21 15° NNW 02:39:21 15° NNW 02:40:04 10° NNW visible
04 Apr ? 01:05:05 11° NNE 01:05:05 11° NNE 01:05:20 10° NNE visible
04 Apr ? 02:41:12 16° NNW 02:41:12 16° NNW 02:42:01 10° NNW visible
05 Apr ? 01:06:53 11° NNE 01:06:53 11° NNE 01:07:20 10° NNE visible
05 Apr ? 02:42:59 16° NNW 02:42:59 16° NNW 02:43:54 10° NNW visible
06 Apr ? 01:08:36 12° NE 01:08:36 12° NE 01:09:13 10° NNE visible
06 Apr ? 02:44:43 17° NNW 02:44:43 17° NNW 02:45:43 10° NNW visible
